TimeEST,TemperatureF,Dew PointF,Humidity,Sea Level PressureIn,VisibilityMPH,Wind Direction,Wind SpeedMPH,Gust SpeedMPH,PrecipitationIn,Events,Conditions,WindDirDegrees,DateUTC
12:15 AM,30.9,19.0,61,29.92,10.0,WSW,3.5,-,N/A,,Scattered Clouds,250,2013-02-01 05:15:00
12:35 AM,32.2,20.1,61,29.91,10.0,SSW,3.5,-,N/A,,Scattered Clouds,200,2013-02-01 05:35:00
12:55 AM,33.1,21.2,62,29.90,10.0,Calm,Calm,-,N/A,,Scattered Clouds,0,2013-02-01 05:55:00
1:15 AM,32.0,19.2,59,29.89,10.0,Calm,Calm,-,N/A,,Scattered Clouds,0,2013-02-01 06:15:00
1:35 AM,30.9,17.6,58,29.87,10.0,Calm,Calm,-,N/A,,Scattered Clouds,0,2013-02-01 06:35:00
1:55 AM,31.5,19.9,62,29.86,10.0,Calm,Calm,-,N/A,,Mostly Cloudy,0,2013-02-01 06:55:00
2:15 AM,32.0,20.8,63,29.85,10.0,Calm,Calm,-,N/A,,Overcast,0,2013-02-01 07:15:00
2:35 AM,32.4,21.6,64,29.84,10.0,SW,4.6,-,N/A,,Overcast,220,2013-02-01 07:35:00
2:55 AM,33.8,22.8,64,29.83,10.0,SW,4.6,-,N/A,,Overcast,230,2013-02-01 07:55:00
3:15 AM,34.7,23.7,64,29.83,10.0,WSW,3.5,-,N/A,,Overcast,250,2013-02-01 08:15:00
3:35 AM,35.1,23.4,62,29.83,10.0,Calm,Calm,-,N/A,,Overcast,0,2013-02-01 08:35:00
4:15 AM,33.4,22.3,64,29.82,10.0,SW,3.5,-,N/A,,Overcast,230,2013-02-01 09:15:00
4:35 AM,34.5,24.3,66,29.83,10.0,WSW,5.8,-,N/A,,Overcast,250,2013-02-01 09:35:00
4:55 AM,36.5,25.0,63,29.85,10.0,West,6.9,-,N/A,,Overcast,280,2013-02-01 09:55:00
5:15 AM,36.3,30.7,80,29.89,7.0,NW,15.0,26.5,N/A,Snow,Light Snow,320,2013-02-01 10:15:00
5:35 AM,33.8,26.2,74,29.92,10.0,NW,15.0,21.9,N/A,,Overcast,320,2013-02-01 10:35:00
6:15 AM,31.8,18.3,57,29.97,10.0,WNW,13.8,31.1,N/A,,Clear,300,2013-02-01 11:15:00
6:35 AM,30.9,13.5,48,29.99,10.0,WNW,17.3,25.3,N/A,,Clear,300,2013-02-01 11:35:00
6:55 AM,28.9,12.0,49,30.02,10.0,WNW,15.0,31.1,N/A,,Clear,290,2013-02-01 11:55:00
7:15 AM,28.4,10.6,47,30.04,10.0,WNW,15.0,25.3,N/A,,Clear,290,2013-02-01 12:15:00
7:35 AM,27.5,6.3,41,30.06,10.0,WNW,12.7,26.5,N/A,,Clear,300,2013-02-01 12:35:00
8:15 AM,27.3,1.9,34,30.11,10.0,WNW,10.4,27.6,N/A,,Clear,290,2013-02-01 13:15:00
8:35 AM,27.3,3.9,37,30.13,10.0,WNW,9.2,19.6,N/A,,Clear,300,2013-02-01 13:35:00
8:55 AM,27.1,3.9,37,30.15,10.0,WNW,10.4,20.7,N/A,,Clear,300,2013-02-01 13:55:00
9:15 AM,27.7,3.7,36,30.16,10.0,WNW,10.4,21.9,N/A,,Clear,290,2013-02-01 14:15:00
9:35 AM,28.0,3.9,36,30.16,10.0,West,9.2,21.9,N/A,,Clear,280,2013-02-01 14:35:00
9:55 AM,28.8,4.1,35,30.18,10.0,West,8.1,17.3,N/A,,Clear,280,2013-02-01 14:55:00
10:15 AM,29.1,1.8,31,30.19,10.0,NW,8.1,19.6,N/A,,Clear,320,2013-02-01 15:15:00
10:35 AM,29.7,2.3,31,30.20,10.0,NNW,11.5,18.4,N/A,,Clear,340,2013-02-01 15:35:00
10:55 AM,30.0,2.8,31,30.22,10.0,North,6.9,-,N/A,,Clear,360,2013-02-01 15:55:00
11:15 AM,30.9,2.3,30,30.22,10.0,NNW,9.2,17.3,N/A,,Clear,330,2013-02-01 16:15:00
11:35 AM,30.2,2.3,31,30.23,10.0,NNW,8.1,17.3,N/A,,Clear,330,2013-02-01 16:35:00
11:55 AM,31.6,3.2,30,30.23,10.0,NW,9.2,-,N/A,,Clear,310,2013-02-01 16:55:00
12:15 PM,32.4,4.1,30,30.23,10.0,NNW,6.9,-,N/A,,Clear,330,2013-02-01 17:15:00
12:35 PM,32.4,2.3,28,30.22,10.0,NNW,6.9,-,N/A,,Clear,340,2013-02-01 17:35:00
12:55 PM,33.3,4.3,30,30.21,10.0,NW,8.1,-,N/A,,Clear,310,2013-02-01 17:55:00
1:15 PM,34.3,3.4,27,30.21,10.0,NW,10.4,16.1,N/A,,Clear,310,2013-02-01 18:15:00
1:35 PM,34.2,2.7,26,30.21,10.0,NNW,6.9,18.4,N/A,,Clear,330,2013-02-01 18:35:00
1:55 PM,34.3,2.7,26,30.21,10.0,NNW,11.5,17.3,N/A,,Clear,330,2013-02-01 18:55:00
2:15 PM,33.6,1.8,26,30.22,10.0,NNW,12.7,19.6,N/A,,Clear,330,2013-02-01 19:15:00
2:35 PM,33.8,-0.6,23,30.22,10.0,NW,13.8,19.6,N/A,,Clear,310,2013-02-01 19:35:00
2:55 PM,34.0,0.5,24,30.22,10.0,North,10.4,16.1,N/A,,Clear,350,2013-02-01 19:55:00
3:15 PM,34.0,-0.4,23,30.23,10.0,NNW,6.9,-,N/A,,Clear,330,2013-02-01 20:15:00
3:35 PM,33.6,-0.8,23,30.23,10.0,NNW,6.9,-,N/A,,Clear,340,2013-02-01 20:35:00
3:55 PM,34.0,-0.8,23,30.23,10.0,NNW,9.2,-,N/A,,Clear,330,2013-02-01 20:55:00
4:15 PM,33.8,-0.8,23,30.23,10.0,NNW,5.8,-,N/A,,Clear,330,2013-02-01 21:15:00
4:35 PM,33.4,-0.2,24,30.24,10.0,NW,5.8,-,N/A,,Clear,310,2013-02-01 21:35:00
4:55 PM,33.1,-0.0,24,30.24,10.0,WNW,5.8,-,N/A,,Clear,300,2013-02-01 21:55:00
5:15 PM,32.2,-0.6,25,30.25,10.0,NNW,5.8,-,N/A,,Clear,330,2013-02-01 22:15:00
5:35 PM,30.7,-1.1,26,30.25,10.0,NW,6.9,-,N/A,,Clear,310,2013-02-01 22:35:00
6:15 PM,27.1,1.4,33,30.26,10.0,WNW,5.8,-,N/A,,Clear,300,2013-02-01 23:15:00
6:35 PM,27.0,1.4,33,30.27,10.0,WNW,3.5,-,N/A,,Clear,300,2013-02-01 23:35:00
6:55 PM,25.5,-0.2,33,30.28,10.0,Calm,Calm,-,N/A,,Clear,0,2013-02-01 23:55:00
7:15 PM,24.6,0.5,35,30.28,10.0,WNW,3.5,-,N/A,,Clear,300,2013-02-02 00:15:00
7:35 PM,25.5,3.2,38,30.28,10.0,WNW,3.5,-,N/A,,Clear,290,2013-02-02 00:35:00
7:55 PM,25.7,3.0,38,30.30,10.0,NW,4.6,-,N/A,,Clear,310,2013-02-02 00:55:00
8:15 PM,25.0,2.1,37,30.30,10.0,Calm,Calm,-,N/A,,Clear,0,2013-02-02 01:15:00
8:35 PM,23.9,2.8,40,30.32,10.0,NW,3.5,-,N/A,,Clear,310,2013-02-02 01:35:00
8:55 PM,23.5,3.4,42,30.32,10.0,Calm,Calm,-,N/A,,Clear,0,2013-02-02 01:55:00
9:15 PM,23.0,1.0,39,30.32,10.0,Calm,Calm,-,N/A,,Clear,0,2013-02-02 02:15:00
9:55 PM,21.7,1.2,41,30.32,10.0,Calm,Calm,-,N/A,,Clear,0,2013-02-02 02:55:00
10:15 PM,20.8,0.9,42,30.32,10.0,Calm,Calm,-,N/A,,Clear,0,2013-02-02 03:15:00
10:35 PM,20.8,4.6,50,30.32,10.0,Calm,Calm,-,N/A,,Clear,0,2013-02-02 03:35:00
10:55 PM,19.9,0.9,44,30.32,10.0,Calm,Calm,-,N/A,,Clear,0,2013-02-02 03:55:00
11:15 PM,20.8,4.8,50,30.32,10.0,North,3.5,-,N/A,,Clear,360,2013-02-02 04:15:00
11:35 PM,22.1,5.0,48,30.31,10.0,North,4.6,-,N/A,,Clear,360,2013-02-02 04:35:00
11:55 PM,22.5,4.1,45,30.31,10.0,NNW,3.5,-,N/A,,Clear,340,2013-02-02 04:55:00